Aérodrome :
LOGIN :

S'inscrire | Disclaimer

   EN    FR    IT 

 










Légende :    VFR   VFR Marginal   IFR   IFR Intensif   IFR Très Intensif
Visi : 
Plafond : 
>= 8 km
>= 3000ft
5 à 8 km
1000 à 3000 ft
1500m à 5 km
500 à 1000 ft
800 à 1500m
200 à 500 ft
< 800m
< 200 ft
Symboles :   Orages  Brouillard  Fortes neiges  Fortes précipitations  Vent > 20 kt
SIGMETs :   Divers  Orages  Givrage  Turbulence  Onde Orograph.  Cendres Volcan.







- Altitude de l'aérodrome : 209 ft
- Code IATA : CLY
- Voir les cartes d'approche


LFKC - Calvi

DERNIER METAR :
  • 241100Z AUTO 35008KT 310V010 CAVOK 20/15 Q1015 NOSIG

METARs EXPIRÉS :
  • 241030Z AUTO 36008KT CAVOK 20/14 Q1015 NOSIG
  • 241000Z AUTO 36009KT 330V030 CAVOK 19/14 Q1015 NOSIG
  • 240930Z AUTO 35010KT 310V020 CAVOK 19/15 Q1015 NOSIG
  • 240900Z AUTO 35009KT CAVOK 19/14 Q1015 NOSIG
  • 240830Z AUTO 35008KT 300V020 CAVOK 19/14 Q1015 NOSIG

TAF TAF LFKC
Valide du 24 à 09h jusqu'au 25 à 09h UTC


240800Z 2409/2509 34010KT CAVOK TX21/2412Z TN13/2501Z
TEMPO 2414/2416 FEW026TCU
ATIS : +33 4 95 65 82 49
Pas de NOTAMs connus pour ce terrain.



MET'MAP, la Météo Aéronautique d'un coup d'oeil ! - Copyright ORBIFLY Décembre 2007 - Disclaimer

ORBIFLY MET'MAP TEAM :

Programmation & Développement : Alexandra Zaïnal
Conception & Développement : Baudouin d'Aumeries
Co-Programmation & Développement : Marc-Olivier Méhu
Soutien technique & logistique : Manuel Goepfert

Contact : metmap@orbifly.com




SOURCES & CREDITS :

   NOAA